#timestamp,LO_Frequency,Hit,StdDev 
1571130015.5,286046968.5,N
1571130035.3,286046966.3,N
1571130055.1,286046975.0,N
1571130075.9,286046969.3,N
1571130095.7,286046965.0,N
1571130115.6,286046966.4,N
1571130135.4,286046966.1,N
1571130155.2,286046968.3,N
1571130175.1,286046968.9,N
1571130176.0,286046968.9,N
1571130195.8,286046966.3,N
1571130215.7,286046972.1,N
1571130235.5,286046966.7,N
1571130255.3,286046964.8,N
1571130275.2,286046958.5,Y
1571130295.0,286046980.3,P
1571130295.9,286046980.3,P
1571130315.7,286046972.7,P
1571130335.6,286046967.9,Y
1571130355.4,286046984.2,P
1571130375.3,286046981.8,P
1571130395.1,286046973.1,P
1571130415.8,286046966.1,Y
1571130435.7,286046979.2,P
1571130455.5,286046976.9,P
1571130475.4,286046973.4,P
1571130495.2,286046969.8,Y
1571130515.0,286046995.8,P
1571130515.9,286046995.8,N
1571130535.8,286046994.2,N
1571130555.6,286046991.6,N
1571130575.5,286046986.1,N
1571130595.3,286046989.0,N
1571130615.1,286047001.2,N
1571130635.9,286047006.1,N
1571130655.7,286047015.0,N
1571130675.6,286047018.6,N
1571130695.4,286047017.4,N
1571130715.2,286047023.0,N
1571130735.1,286047028.2,N
1571130736.0,286047028.2,N
1571130755.8,286047027.2,N
1571130775.6,286047029.8,N
1571130795.5,286047028.9,N
1571130815.3,286047026.0,N
1571130835.2,286047026.2,N
1571130855.9,286047023.9,N
1571130875.7,286047019.7,N
1571130895.6,286047015.9,N
1571130915.4,286047014.8,N
1571130935.2,286047011.1,N
1571130955.1,286047007.1,N
1571130956.0,286047007.1,N
1571130975.8,286047003.8,N
1571130995.7,286047006.8,N
1571131015.5,286047011.9,N
1571131035.3,286047013.5,N
1571131055.2,286047008.9,N
1571131075.0,286047012.3,N
1571131075.9,286047012.3,N
1571131095.8,286047015.4,N
1571131115.6,286047018.3,N
1571131135.4,286047011.3,N
1571131155.3,286047002.1,N
1571131175.1,286046995.1,N
1571131195.8,286046996.4,N
1571131215.7,286046993.3,N
1571131235.5,286046987.8,N
1571131255.4,286046982.8,N
1571131275.2,286046981.4,N
1571131295.0,286046983.2,N
1571131295.9,286046983.2,N
1571131315.8,286046993.1,N
1571131335.6,286046998.8,N
1571131355.5,286046999.7,N
1571131375.3,286047005.5,N
1571131395.1,286047009.6,N
1571131415.9,286047012.8,N
1571131435.7,286047015.5,N
1571131455.5,286047014.3,N
1571131475.4,286047016.1,N
1571131495.2,286047018.0,N
1571131515.1,286047022.6,N
1571131516.0,286047022.6,N
1571131535.8,286047027.2,N
1571131555.6,286047027.5,N
1571131575.5,286047029.9,N
1571131595.3,286047033.1,N
1571131615.1,286047034.4,N
1571131635.9,286047031.3,N
1571131655.7,286047027.3,N
1571131675.6,286047027.7,N
1571131695.4,286047025.4,N
1571131715.2,286047019.5,N
1571131735.1,286047018.3,N
1571131736.0,286047018.3,N
1571131755.8,286047021.2,N
1571131775.7,286047021.5,N
1571131795.5,286047015.5,N
1571131815.3,286047007.0,N
1571131835.2,286047004.8,N
1571131855.0,286046996.6,N
1571131855.9,286046996.6,N
1571131875.7,286046990.6,N
1571131895.6,286046989.4,N
1571131915.4,286046986.0,N
1571131935.3,286046984.3,N
1571131955.1,286046983.6,N
1571131975.8,286046978.2,N
1571131995.7,286046983.6,N
1571132015.5,286046983.4,N
1571132035.4,286046985.8,N
1571132055.2,286046986.0,N
1571132075.0,286046987.1,N
1571132076.0,286046987.1,N
1571132095.8,286046987.3,N
1571132115.6,286046984.6,N
1571132135.5,286046983.6,N
1571132155.3,286046981.4,N
1571132175.1,286046980.3,N
1571132195.9,286046980.9,N
1571132215.7,286046981.7,N
1571132235.6,286046984.0,N
1571132255.4,286046985.8,N
1571132275.2,286046985.8,N
1571132295.1,286046989.0,N
1571132296.0,286046989.0,N
1571132315.8,286046990.2,N
1571132335.6,286046992.6,N
1571132355.5,286046994.0,N
1571132375.3,286046996.3,N
1571132395.2,286046988.9,N
1571132415.9,286046987.9,N
1571132435.7,286046988.7,N
1571132455.6,286046986.3,Y
1571132475.4,286046998.3,P
1571132495.3,286047005.7,N
1571132515.1,286047003.7,N
1571132516.0,286047003.7,N
1571132535.8,286046999.0,N
1571132555.7,286046994.8,N
1571132575.5,286046988.8,N
1571132595.3,286046987.1,N
1571132615.2,286046992.5,N
1571132635.0,286046991.8,N
1571132635.9,286046991.8,N
1571132655.8,286046997.8,N
1571132675.6,286046994.0,N
1571132695.4,286046995.2,N
1571132715.3,286046995.6,N
1571132735.1,286046993.9,N
1571132755.8,286046993.4,N
1571132775.7,286046993.4,N
1571132795.5,286046995.6,N
1571132815.4,286046995.4,N
1571132835.2,286046992.0,N
1571132855.0,286046996.7,N
1571132855.9,286046996.7,N
1571132875.8,286046993.8,N
1571132895.6,286046996.3,N
1571132915.5,286047000.8,N
1571132935.3,286046999.2,N
1571132955.1,286046997.2,N
1571132975.9,286046995.4,N
1571132995.7,286046996.0,N
1571133015.6,286046992.8,N
1571133035.4,286046991.5,N
1571133055.2,286046987.5,Y
1571133075.1,286046993.9,P
1571133076.0,286046993.9,P
1571133095.8,286046993.4,P
1571133115.7,286046997.5,Y
1571133135.5,286047005.0,P
1571133155.3,286047012.0,N
1571133175.2,286047011.3,N
1571133195.0,286047017.3,N
1571133195.9,286047017.3,N
1571133215.7,286047013.6,N
1571133235.6,286047014.2,N
1571133255.4,286047021.8,Y
1571133275.3,286047012.4,P
1571133295.1,286047003.2,P
1571133296.0,286047003.2,N
1571133315.8,286047003.9,N
1571133335.7,286047001.6,N
1571133355.5,286047002.0,N
1571133375.4,286047003.2,N
1571133395.2,286047007.1,N
1571133415.0,286047008.7,N
1571133415.9,286047008.7,N
1571133435.8,286047008.7,N
1571133455.6,286047009.2,N
1571133475.4,286047007.0,N
1571133495.3,286047005.0,N
1571133515.1,286047008.6,N
1571133535.9,286047007.9,N
1571133555.7,286047009.5,Y
1571133575.5,286047000.5,P
1571133595.4,286046997.6,N
